EW0624 Weather Reports


Display with metric or nautical units.
time (UTC)temp
F
wind
direction
speed
MPH
gust
MPH
rain 1hr
in
rain 24hr
in
rain mn
in
humidity
%
barometer
mb
20260505182903 53 156 3.0 6.0 0.00 0.25 0.11 92 1014.6
20260505181903 53 164 5.0 9.0 0.00 0.26 0.11 91 1014.5
20260505181403 53 157 6.0 10.0 0.00 0.27 0.11 91 1014.5
20260505180903 53 164 5.0 15.0 0.00 0.27 0.11 90 1014.4
20260505175903 54 175 9.0 13.0 0.00 0.28 0.11 88 1014.3
20260505174403 54 160 4.0 6.0 0.00 0.30 0.11 88 1014.3
20260505173903 54 161 4.0 8.0 0.00 0.30 0.11 88 1014.3
20260505173404 54 165 3.0 7.0 0.00 0.31 0.11 88 1014.4
20260505172404 54 159 4.0 8.0 0.00 0.31 0.11 89 1014.4
20260505171903 54 168 4.0 7.0 0.00 0.32 0.11 89 1014.4
20260505171403 54 157 3.0 6.0 0.00 0.33 0.11 90 1014.4
20260505170903 54 153 2.0 9.0 0.00 0.34 0.11 90 1014.4
20260505170403 54 162 6.0 9.0 0.00 0.34 0.11 90 1014.3
20260505165903 54 135 5.0 9.0 0.00 0.35 0.11 90 1014.3
20260505165404 53 156 3.0 7.0 0.00 0.35 0.11 90 1014.4
20260505164903 53 133 3.0 9.0 0.00 0.40 0.11 90 1014.4
20260505164403 53 153 5.0 9.0 0.00 0.43 0.11 90 1014.4
20260505163903 53 183 7.0 12.0 0.00 0.44 0.11 90 1014.3
20260505163403 53 167 7.0 12.0 0.00 0.46 0.11 90 1014.4
20260505162903 54 157 7.0 12.0 0.00 0.48 0.11 90 1014.3
20260505162403 54 138 5.0 12.0 0.00 0.49 0.11 89 1014.3
20260505161903 54 191 5.0 10.0 0.00 0.49 0.11 90 1014.2
20260505160903 54 188 7.0 12.0 0.00 0.49 0.11 89 1014.2
20260505160404 53 181 10.0 12.0 0.00 0.49 0.11 89 1014.2
20260505152903 55 193 6.0 10.0 0.00 0.54 0.11 88 1014.1
20260505152404 55 206 1.0 5.0 0.00 0.54 0.11 89 1014.1
20260505151904 54 161 2.0 5.0 0.00 0.54 0.11 89 1014.0
20260505150903 54 146 1.0 3.0 0.00 0.54 0.11 90 1014.1
20260505150403 54 183 1.0 6.0 0.00 0.54 0.11 90 1014.1
20260505140403 55 5 2.0 3.0 0.09 0.54 0.11 89 1014.0
20260505124903 55 278 7.0 14.0 0.01 0.45 0.02 86 1013.9
20260505124404 54 290 7.0 13.0 0.01 0.45 0.02 87 1013.8
20260505123904 54 306 2.0 8.0 0.01 0.45 0.02 88 1013.9
20260505123404 53 300 3.0 8.0 0.01 0.45 0.02 88 1013.9
20260505122903 53 288 2.0 8.0 0.01 0.45 0.02 88 1013.9
20260505122403 53 311 2.0 7.0 0.01 0.45 0.02 88 1013.9
20260505121904 53 293 2.0 8.0 0.01 0.45 0.02 88 1013.9
20260505121404 52 293 5.0 8.0 0.01 0.45 0.02 88 1013.9
20260505120903 52 304 1.0 7.0 0.01 0.45 0.02 88 1013.9
20260505120403 52 290 5.0 12.0 0.01 0.45 0.02 86 1014.0
20260505115903 52 327 9.0 16.0 0.00 0.44 0.02 85 1014.0
20260505115403 52 316 14.0 20.0 0.00 0.44 0.02 84 1014.0
20260505113903 57 289 7.0 15.0 0.00 0.44 0.02 79 1013.6
20260505113403 56 319 9.0 16.0 0.00 0.44 0.02 79 1013.6
20260505112904 56 302 8.0 13.0 0.01 0.44 0.02 80 1013.6
20260505111904 55 300 4.0 12.0 0.01 0.44 0.02 82 1013.8
20260505111404 55 306 9.0 15.0 0.01 0.44 0.02 81 1013.8
20260505110904 55 306 9.0 15.0 0.01 0.44 0.02 84 1013.8
20260505110403 55 294 6.0 13.0 0.02 0.44 0.02 85 1013.9
20260505101903 56 277 9.0 18.0 0.01 0.43 0.01 78 1013.9
20260505101403 56 275 7.0 13.0 0.01 0.43 0.01 77 1013.8
20260505100904 56 235 3.0 14.0 0.01 0.43 0.01 78 1013.8
20260505100403 55 223 6.0 12.0 0.00 0.43 0.00 79 1013.8
20260505095903 55 221 3.0 12.0 0.00 0.43 0.00 79 1013.8
20260505095403 55 275 9.0 14.0 0.00 0.43 0.00 79 1013.9
20260505094903 55 240 8.0 15.0 0.00 0.43 0.00 79 1013.8
20260505094403 55 260 10.0 16.0 0.00 0.43 0.00 80 1013.9
20260505093404 54 292 10.0 16.0 0.00 0.43 0.00 83 1013.9
20260505092909 54 298 5.0 13.0 0.00 0.43 0.00 85 1013.9
20260505092403 54 262 7.0 13.0 0.00 0.43 0.00 86 1013.9
20260505091904 53 275 5.0 10.0 0.00 0.43 0.00 87 1013.9
20260505091404 53 273 4.0 12.0 0.00 0.43 0.00 88 1013.9
20260505090903 53 232 2.0 8.0 0.00 0.43 0.00 89 1013.9
20260505085904 52 287 1.0 6.0 0.00 0.43 0.00 89 1013.9
20260505085403 53 224 3.0 8.0 0.00 0.43 0.00 90 1014.0
20260505084903 52 263 2.0 6.0 0.00 0.43 0.00 91 1014.0
20260505084403 52 207 1.0 5.0 0.00 0.43 0.00 91 1014.0
20260505083903 51 252 2.0 8.0 0.00 0.43 0.00 91 1014.0
20260505083403 51 219 5.0 7.0 0.00 0.43 0.00 91 1014.1
20260505082904 51 251 3.0 8.0 0.00 0.43 0.00 91 1014.1
20260505082403 51 258 3.0 7.0 0.00 0.43 0.00 92 1014.1
20260505081403 51 227 1.0 2.0 0.00 0.43 0.00 93 1014.0
20260505080403 50 227 0.0 2.0 0.00 0.43 0.00 94 1013.9
20260505075903 50 216 2.0 3.0 0.00 0.43 0.00 94 1013.9
20260505075403 50 240 1.0 3.0 0.00 0.43 0.00 95 1014.0
20260505074904 50 243 1.0 3.0 0.00 0.43 0.00 96 1014.0
20260505074406 49 242 2.0 3.0 0.00 0.43 0.00 96 1013.9
20260505073906 49 191 0.0 2.0 0.00 0.43 0.00 97 1013.9
20260505073403 49 189 0.0 0.0 0.00 0.43 0.00 97 1013.9
20260505072903 49 189 0.0 1.0 0.00 0.43 0.00 97 1013.9
20260505071903 48 189 3.0 5.0 0.00 0.43 0.00 97 1013.8
20260505071404 48 184 5.0 7.0 0.00 0.43 0.00 97 1013.8
20260505070903 48 196 6.0 8.0 0.00 0.43 0.00 97 1013.8
20260505070403 48 199 5.0 7.0 0.00 0.43 0.00 97 1013.8
20260505065903 48 192 0.0 2.0 0.00 0.43 0.00 98 1013.8
20260505065403 48 192 1.0 3.0 0.00 0.43 0.00 98 1013.8
20260505064903 48 192 0.0 0.0 0.00 0.43 0.00 98 1013.7
20260505064403 48 192 1.0 3.0 0.00 0.43 0.00 98 1013.7
20260505063903 48 192 2.0 3.0 0.00 0.43 0.00 98 1013.7
20260505063403 48 191 3.0 3.0 0.00 0.43 0.00 98 1013.7
20260505062904 48 196 0.0 0.0 0.00 0.43 0.00 98 1013.7
20260505062403 48 197 0.0 1.0 0.00 0.43 0.00 98 1013.7
20260505061903 48 197 1.0 3.0 0.00 0.43 0.00 98 1013.6
20260505061403 48 198 1.0 2.0 0.00 0.43 0.00 98 1013.7
20260505060903 48 192 0.0 0.0 0.00 0.43 0.00 98 1013.7
20260505060403 47 192 2.0 3.0 0.00 0.43 0.00 98 1013.6
20260505055904 47 188 4.0 7.0 0.00 0.43 0.00 98 1013.7
20260505055403 48 180 2.0 5.0 0.00 0.43 0.00 98 1013.6
20260505054903 48 158 1.0 5.0 0.00 0.43 0.00 98 1013.6
20260505054403 48 184 1.0 3.0 0.00 0.43 0.00 98 1013.6
20260505053904 47 185 3.0 5.0 0.00 0.43 0.00 99 1013.6
20260505053403 47 185 2.0 6.0 0.00 0.43 0.00 99 1013.6
20260505051903 47 190 4.0 5.0 0.00 0.43 0.00 99 1013.5
20260505050903 48 185 2.0 5.0 0.00 0.43 0.00 99 1013.5
20260505050403 48 201 0.0 3.0 0.00 0.43 0.00 99 1013.5
20260505040903 48 220 0.0 0.0 0.00 0.43 0.00 99 1013.5
20260505035403 47 217 0.0 2.0 0.00 0.43 0.00 99 1013.6
20260505034403 47 218 1.0 3.0 0.00 0.43 0.00 99 1013.7
20260505033403 47 217 1.0 2.0 0.00 0.43 0.00 99 1013.8
20260505032903 47 191 0.0 3.0 0.00 0.43 0.00 99 1013.8
20260505031903 47 178 2.0 5.0 0.00 0.43 0.00 99 1013.7
20260505031403 47 184 0.0 0.0 0.00 0.43 0.00 99 1013.8
20260505030903 48 185 0.0 0.0 0.00 0.43 0.00 99 1013.8
20260505030404 48 185 2.0 3.0 0.00 0.43 0.00 99 1013.8
20260505025403 48 184 0.0 0.0 0.00 0.43 0.00 99 1013.8
20260505024903 48 184 0.0 0.0 0.00 0.43 0.00 99 1013.8
20260505024403 48 184 0.0 2.0 0.00 0.43 0.00 99 1013.9
20260505023903 48 178 0.0 1.0 0.00 0.43 0.00 99 1013.9
20260505023403 48 175 0.0 2.0 0.00 0.43 0.00 99 1013.9
20260505022904 48 173 0.0 2.0 0.00 0.43 0.00 99 1013.9
20260505022403 48 174 2.0 3.0 0.00 0.43 0.00 99 1014.0
20260505021903 48 175 2.0 3.0 0.00 0.43 0.00 99 1014.0
20260505021403 48 175 2.0 3.0 0.00 0.43 0.00 99 1014.0
20260505020903 48 174 0.0 0.0 0.00 0.43 0.00 99 1014.0
20260505015403 48 175 0.0 0.0 0.00 0.43 0.00 99 1014.1
20260505014903 48 175 0.0 3.0 0.00 0.43 0.00 99 1014.1
20260505014403 48 173 1.0 3.0 0.00 0.43 0.00 99 1014.1
20260505013903 48 202 2.0 3.0 0.00 0.43 0.00 99 1014.1
20260505013403 48 205 2.0 3.0 0.00 0.43 0.00 99 1014.2
20260505012904 48 205 1.0 3.0 0.00 0.43 0.00 99 1014.3
20260505012403 48 169 0.0 0.0 0.00 0.43 0.00 99 1014.3
20260505011903 48 169 0.0 0.0 0.00 0.43 0.00 99 1014.3
20260505011403 48 169 0.0 2.0 0.00 0.43 0.00 99 1014.3
20260505010903 48 168 0.0 0.0 0.00 0.43 0.00 99 1014.3
20260505005903 48 169 0.0 0.0 0.00 0.43 0.00 99 1014.4
20260505005403 48 169 0.0 0.0 0.00 0.43 0.00 99 1014.4
20260505004903 48 169 0.0 0.0 0.00 0.43 0.00 99 1014.3
20260505004403 48 169 0.0 0.0 0.00 0.43 0.00 99 1014.4
20260505003903 48 169 0.0 0.0 0.00 0.43 0.00 99 1014.4
20260505003403 48 167 0.0 0.0 0.00 0.43 0.00 99 1014.4
20260505002903 48 166 0.0 3.0 0.00 0.43 0.00 99 1014.5
20260505002403 48 167 1.0 3.0 0.00 0.43 0.00 99 1014.5
20260505001903 49 167 1.0 3.0 0.00 0.43 0.00 99 1014.5
20260505001403 49 167 0.0 0.0 0.00 0.43 0.00 99 1014.5
20260505000903 49 167 0.0 0.0 0.00 0.43 0.00 99 1014.5
20260505000405 49 167 0.0 0.0 0.00 0.43 0.00 99 1014.5
20260504235403 49 167 0.0 0.0 0.00 0.43 0.00 99 1014.6
20260504234403 49 165 0.0 2.0 0.00 0.43 0.00 99 1014.6
20260504233903 49 165 0.0 2.0 0.00 0.43 0.00 99 1014.6
20260504233403 49 165 1.0 3.0 0.00 0.43 0.00 99 1014.6
20260504232904 49 163 2.0 5.0 0.00 0.43 0.00 99 1014.6
20260504232403 49 163 0.0 0.0 0.00 0.43 0.00 99 1014.6
20260504231903 49 163 0.0 0.0 0.00 0.43 0.00 99 1014.6
20260504231403 49 163 0.0 0.0 0.00 0.43 0.00 99 1014.6
20260504230903 49 163 0.0 0.0 0.00 0.43 0.00 99 1014.7
20260504230403 49 163 0.0 0.0 0.00 0.43 0.00 99 1014.7
20260504225903 49 163 0.0 0.0 0.00 0.43 0.00 99 1014.8
20260504225404 49 163 0.0 0.0 0.00 0.43 0.00 99 1014.8
20260504224903 49 163 0.0 0.0 0.00 0.43 0.00 99 1014.8
20260504224403 49 163 0.0 0.0 0.00 0.43 0.00 99 1014.9
20260504223903 49 163 0.0 2.0 0.00 0.43 0.00 99 1015.0
20260504223403 49 163 0.0 1.0 0.00 0.43 0.00 99 1015.0
20260504222903 49 163 1.0 3.0 0.00 0.43 0.00 99 1015.1
20260504222403 49 163 0.0 0.0 0.00 0.43 0.00 99 1015.0
20260504221404 49 163 0.0 3.0 0.00 0.43 0.00 99 1015.0
20260504215903 49 161 0.0 0.0 0.00 0.43 0.43 99 1015.1
20260504215403 49 161 0.0 0.0 0.00 0.43 0.43 99 1015.2
20260504214903 49 161 0.0 0.0 0.00 0.43 0.43 99 1015.2
20260504214403 49 161 0.0 3.0 0.00 0.43 0.43 99 1015.2
20260504213903 49 159 1.0 3.0 0.00 0.43 0.43 99 1015.2
20260504213403 49 140 0.0 2.0 0.00 0.43 0.43 99 1015.2
20260504212904 49 139 0.0 0.0 0.00 0.43 0.43 99 1015.2
20260504212403 49 138 0.0 0.0 0.00 0.43 0.43 99 1015.2
20260504211903 49 137 0.0 2.0 0.00 0.43 0.43 99 1015.2
20260504211403 49 136 1.0 3.0 0.00 0.43 0.43 99 1015.2
20260504210903 49 135 1.0 3.0 0.00 0.43 0.43 100 1015.2
20260504210404 49 167 0.0 3.0 0.00 0.44 0.43 100 1015.3
20260504205903 49 186 1.0 3.0 0.00 0.44 0.43 99 1015.2
20260504204904 49 111 0.0 0.0 0.00 0.44 0.43 100 1015.2
20260504204403 49 111 0.0 0.0 0.01 0.44 0.43 100 1015.2
20260504203903 49 111 0.0 0.0 0.02 0.44 0.43 100 1015.3
20260504203403 49 111 0.0 0.0 0.05 0.44 0.43 100 1015.2
20260504202903 49 111 0.0 0.0 0.06 0.45 0.43 100 1015.1
20260504201904 49 111 0.0 2.0 0.11 0.45 0.43 100 1015.0
20260504200903 49 113 0.0 0.0 0.12 0.46 0.43 100 1015.0
20260504200404 49 113 0.0 1.0 0.13 0.46 0.43 100 1014.9
20260504195904 49 114 1.0 3.0 0.13 0.46 0.43 100 1014.9
20260504195403 49 113 0.0 2.0 0.13 0.46 0.43 100 1014.9
20260504194903 49 136 1.0 3.0 0.13 0.46 0.43 99 1014.9
20260504194403 49 116 1.0 3.0 0.12 0.46 0.42 99 1014.9
20260504193903 49 114 0.0 3.0 0.10 0.44 0.40 99 1014.9
20260504193403 49 172 1.0 2.0 0.09 0.42 0.38 99 1015.0
20260504192904 49 180 3.0 6.0 0.08 0.40 0.36 99 1015.0
20260504192403 49 214 5.0 9.0 0.06 0.39 0.34 99 1015.1
20260504191904 49 194 3.0 9.0 0.04 0.37 0.31 99 1015.0
20260504191403 49 190 4.0 9.0 0.04 0.36 0.31 99 1014.8
20260504190903 49 172 6.0 10.0 0.04 0.37 0.31 99 1014.6
20260504185903 49 216 3.0 7.0 0.05 0.36 0.30 99 1014.5
20260504184903 50 206 3.0 8.0 0.06 0.37 0.30 99 1014.4
20260504184404 50 194 5.0 8.0 0.06 0.37 0.30 99 1014.5